Red Bluff, CA

3:03 AM PST on December 10, 2019 (GMT -0800)
Red Bluff Municipal

Weather History for KRBL - November, 2019

Change the Weather History Date:

Sunday, November 17, 2019

  Actual Average Record
Temperature  
Mean Temperature 62 °F -  
Max Temperature 80 °F 62 °F 83 °F (1936)
Min Temperature 43 °F 43 °F 28 °F (1958)
Degree Days  
Heating Degree Days 4    
Growing Degree Days 12 (Base 50)    
Moisture  
Dew Point 38 °F    
Average Humidity 46    
Maximum Humidity 66    
Minimum Humidity 14    
Precipitation  
Precipitation 0.00 in - - ()
Sea Level Pressure  
Sea Level Pressure 30.08 in    
Wind  
Wind Speed 3 mph (WNW)    
Max Wind Speed 7 mph    
Max Gust Speed -    
Visibility 10 miles    
Events      
Averages and records for this station are not official NWS values.
T = Trace of Precipitation, MM = Missing Value Source: NWS Daily Summary

Daily Weather History Graph

Daily Weather History Graph

Search for Another Location

Airport or City:

Astronomy

Nov. 17, 2019 Rise Set
Actual Time 6:56 AM PST 4:50 PM PST
Civil Twilight 6:27 AM PST 5:20 PM PST
Nautical Twilight 5:54 AM PST 5:52 PM PST
Astronomical Twilight 5:22 AM PST 6:25 PM PST
Moon 9:33 PM PST (11/17) 11:46 AM PST (11/17)
Length of Visible Light 10h 52m
Length of Day
9h 54m
Waning Gibbous, 72% of the Moon is Illuminated
Nov 17
Waning Gibbous
Nov 19
Last Quarter
Nov 26
New
Dec 3
First Quarter
Dec 11
Full

Hourly Weather History & Observations

Time (PST) Temp. Windchill Dew Point Humidity Pressure Visibility Wind Dir Wind Speed Gust Speed Precip Events Conditions
12:54 AM 57.0 °F - 33.1 °F 40% 30.12 in 10.0 mi SE 3.5 mph - N/A   Clear
1:54 AM 52.0 °F - 35.1 °F 53% 30.12 in 10.0 mi WNW 3.5 mph - N/A   Clear
2:54 AM 48.0 °F - 32.0 °F 54% 30.12 in 10.0 mi North 3.5 mph - N/A   Clear
3:54 AM 46.9 °F - 33.1 °F 59% 30.13 in 10.0 mi WNW 4.6 mph - N/A   Clear
4:54 AM 45.0 °F 43.5 °F 32.0 °F 60% 30.13 in 10.0 mi NW 3.5 mph - N/A   Clear
5:54 AM 45.0 °F 43.5 °F 32.0 °F 60% 30.13 in 10.0 mi West 3.5 mph - N/A   Clear
6:54 AM 43.0 °F 41.3 °F 30.9 °F 62% 30.14 in 10.0 mi NW 3.5 mph - N/A   Clear
7:54 AM 48.0 °F - 33.1 °F 56% 30.16 in 10.0 mi Calm Calm - N/A   Clear
8:54 AM 55.9 °F - 39.0 °F 53% 30.16 in 10.0 mi Calm Calm - N/A   Clear
9:54 AM 64.0 °F - 42.1 °F 45% 30.15 in 10.0 mi Calm Calm - N/A   Clear
10:54 AM 68.0 °F - 39.9 °F 36% 30.14 in 10.0 mi Calm Calm - N/A   Clear
11:54 AM 72.0 °F - 39.0 °F 30% 30.10 in 10.0 mi Calm Calm - N/A   Clear
12:54 PM 75.0 °F - 39.0 °F 27% 30.07 in 10.0 mi Calm Calm - N/A   Clear
1:54 PM 77.0 °F - 39.0 °F 25% 30.04 in 10.0 mi Calm Calm - N/A   Clear
2:54 PM 80.1 °F - 37.9 °F 22% 30.01 in 10.0 mi Calm Calm - N/A   Clear
3:54 PM 78.1 °F - 37.9 °F 24% 30.01 in 10.0 mi South 4.6 mph - N/A   Clear
4:54 PM 70.0 °F - 39.0 °F 32% 30.00 in 10.0 mi South 5.8 mph - N/A   Clear
5:54 PM 68.0 °F - 41.0 °F 37% 30.01 in 10.0 mi SE 3.5 mph - N/A   Clear
6:54 PM 64.9 °F - 43.0 °F 45% 30.02 in 10.0 mi Calm Calm - N/A   Clear
7:54 PM 60.1 °F - 43.0 °F 53% 30.02 in 10.0 mi Calm Calm - N/A   Clear
8:54 PM 54.0 °F - 41.0 °F 62% 30.02 in 10.0 mi Calm Calm - N/A   Clear
9:54 PM 52.0 °F - 39.9 °F 63% 30.01 in 10.0 mi NW 4.6 mph - N/A   Clear
10:54 PM 52.0 °F - 39.9 °F 63% 30.01 in 10.0 mi NW 6.9 mph - N/A   Clear
11:54 PM 51.1 °F - 39.9 °F 66% 30.01 in 10.0 mi West 3.5 mph - N/A   Clear